Hourly Weather Ozerenka

Today, 3 August, Monday

Time Temperature Precipitation Wind Pressure Humidity
00:00 +11°C° 0 mm 1 mps 741 mmHg 93%
01:00 +11°C° 0 mm 1 mps 741 mmHg 94%
02:00 +10°C° 0 mm 2 mps 741 mmHg 96%
03:00 +10°C° 0 mm 2 mps 741 mmHg 95%
04:00 +10°C° 0 mm 2 mps 741 mmHg 93%
05:00 +12°C° 0 mm 2 mps 741 mmHg 91%
06:00 +13°C° 0 mm 2 mps 741 mmHg 84%
07:00 +15°C° 0 mm 2 mps 741 mmHg 77%
08:00 +17°C° 0 mm 3 mps 741 mmHg 71%
09:00 +18°C° 0 mm 3 mps 741 mmHg 65%
10:00 +19°C° 0 mm 3 mps 741 mmHg 60%
11:00 +21°C° 0 mm 4 mps 741 mmHg 54%
12:00 +21°C° 0 mm 4 mps 741 mmHg 54%
13:00 +22°C° 0 mm 4 mps 741 mmHg 53%
14:00 +22°C° 0 mm 3 mps 741 mmHg 53%
15:00 +22°C° 0 mm 3 mps 741 mmHg 56%
16:00 +22°C° 0 mm 3 mps 741 mmHg 59%
17:00 +22°C° 0 mm 3 mps 741 mmHg 61%
18:00 +20°C° 0 mm 2 mps 741 mmHg 70%
19:00 +18°C° 0 mm 2 mps 741 mmHg 79%
20:00 +16°C° 0 mm 2 mps 741 mmHg 88%
21:00 +16°C° 0 mm 2 mps 741 mmHg 91%
22:00 +15°C° 0 mm 2 mps 741 mmHg 93%
23:00 +15°C° 0 mm 2 mps 741 mmHg 96%

Tomorrow, 4 August, Tuesday

Time Temperature Precipitation Wind Pressure Humidity
00:00 +15°C° 0 mm 2 mps 742 mmHg 96%
01:00 +15°C° 0 mm 2 mps 742 mmHg 97%
02:00 +14°C° 0 mm 2 mps 742 mmHg 98%
03:00 +14°C° 0 mm 2 mps 742 mmHg 97%
04:00 +14°C° 0 mm 2 mps 742 mmHg 97%
05:00 +14°C° 0 mm 2 mps 742 mmHg 97%
06:00 +16°C° 0 mm 2 mps 742 mmHg 91%
07:00 +18°C° 0 mm 2 mps 743 mmHg 84%
08:00 +19°C° 0 mm 3 mps 743 mmHg 78%
09:00 +20°C° 0 mm 3 mps 743 mmHg 72%
10:00 +22°C° 0 mm 3 mps 743 mmHg 66%
11:00 +23°C° 0 mm 4 mps 743 mmHg 60%
12:00 +23°C° 0 mm 4 mps 743 mmHg 58%
13:00 +25°C° 0 mm 4 mps 743 mmHg 57%
14:00 +25°C° 0 mm 4 mps 743 mmHg 55%
15:00 +25°C° 0 mm 4 mps 743 mmHg 58%
16:00 +23°C° 0 mm 4 mps 743 mmHg 61%
17:00 +24°C° 0 mm 3 mps 743 mmHg 64%
18:00 +21°C° 0 mm 3 mps 743 mmHg 71%
19:00 +19°C° 0 mm 3 mps 743 mmHg 78%
20:00 +18°C° 0 mm 2 mps 743 mmHg 85%
21:00 +17°C° 0 mm 3 mps 743 mmHg 87%
22:00 +17°C° 0 mm 3 mps 743 mmHg 89%
23:00 +16°C° 0 mm 3 mps 743 mmHg 91%

Day after tomorrow, 5 August, Wednesday

Time Temperature Precipitation Wind Pressure Humidity
00:00 +16°C° 0 mm 3 mps 743 mmHg 90%
01:00 +16°C° 0 mm 3 mps 743 mmHg 90%
02:00 +16°C° 0 mm 3 mps 743 mmHg 90%
03:00 +16°C° 0 mm 3 mps 743 mmHg 89%
04:00 +16°C° 0 mm 3 mps 743 mmHg 88%
05:00 +16°C° 0 mm 3 mps 743 mmHg 88%
06:00 +18°C° 0 mm 4 mps 744 mmHg 82%
07:00 +19°C° 0 mm 4 mps 744 mmHg 77%
08:00 +21°C° 0 mm 4 mps 744 mmHg 72%
09:00 +22°C° 0 mm 4 mps 744 mmHg 67%
10:00 +23°C° 0 mm 4 mps 744 mmHg 62%
11:00 +26°C° 0 mm 4 mps 744 mmHg 57%
12:00 +26°C° 0 mm 4 mps 745 mmHg 57%
13:00 +26°C° 0 mm 4 mps 745 mmHg 56%
14:00 +27°C° 0 mm 3 mps 745 mmHg 56%
15:00 +26°C° 0.1 mm 3 mps 745 mmHg 63%
16:00 +25°C° 0.1 mm 2 mps 745 mmHg 71%
17:00 +23°C° 0.1 mm 1 mps 745 mmHg 78%
18:00 +22°C° 0 mm 1 mps 745 mmHg 83%
19:00 +21°C° 0 mm 1 mps 745 mmHg 88%
20:00 +20°C° 0 mm 1 mps 746 mmHg 93%
21:00 +19°C° 0 mm 1 mps 746 mmHg 94%
22:00 +19°C° 0 mm 1 mps 746 mmHg 95%
23:00 +17°C° 0 mm 0 mps 746 mmHg 96%

6 August, Thursday

Time Temperature Precipitation Wind Pressure Humidity
00:00 +17°C° 0.1 mm 0 mps 746 mmHg 97%
01:00 +17°C° 0.1 mm 0 mps 746 mmHg 97%
02:00 +18°C° 0.1 mm 1 mps 747 mmHg 97%
03:00 +18°C° 0.6 mm 1 mps 747 mmHg 97%
04:00 +18°C° 0.6 mm 1 mps 747 mmHg 98%
05:00 +19°C° 0.6 mm 1 mps 747 mmHg 98%
06:00 +19°C° 0.4 mm 1 mps 747 mmHg 96%
07:00 +19°C° 0.4 mm 1 mps 747 mmHg 94%
08:00 +19°C° 0.4 mm 2 mps 748 mmHg 92%
09:00 +20°C° 0.1 mm 2 mps 748 mmHg 83%
10:00 +23°C° 0.1 mm 2 mps 748 mmHg 74%
11:00 +24°C° 0.1 mm 2 mps 748 mmHg 65%
12:00 +25°C° 0.1 mm 2 mps 748 mmHg 59%
13:00 +25°C° 0.1 mm 3 mps 748 mmHg 54%
14:00 +26°C° 0.1 mm 3 mps 748 mmHg 49%
15:00 +25°C° 0 mm 3 mps 748 mmHg 52%
16:00 +25°C° 0 mm 2 mps 748 mmHg 54%
17:00 +24°C° 0 mm 2 mps 748 mmHg 57%
18:00 +21°C° 0 mm 2 mps 748 mmHg 64%
19:00 +19°C° 0 mm 2 mps 749 mmHg 71%
20:00 +17°C° 0 mm 2 mps 749 mmHg 78%
21:00 +16°C° 0 mm 2 mps 749 mmHg 77%
22:00 +16°C° 0 mm 2 mps 749 mmHg 76%
23:00 +15°C° 0 mm 2 mps 749 mmHg 75%

7 August, Friday

Time Temperature Precipitation Wind Pressure Humidity
00:00 +14°C° 0 mm 2 mps 750 mmHg 78%
01:00 +14°C° 0 mm 2 mps 750 mmHg 82%
02:00 +13°C° 0 mm 2 mps 750 mmHg 86%
03:00 +13°C° 0 mm 2 mps 750 mmHg 86%
04:00 +13°C° 0 mm 2 mps 750 mmHg 87%
05:00 +13°C° 0 mm 2 mps 751 mmHg 88%
06:00 +15°C° 0 mm 2 mps 751 mmHg 82%
07:00 +17°C° 0 mm 2 mps 751 mmHg 76%
08:00 +19°C° 0 mm 2 mps 751 mmHg 70%
09:00 +20°C° 0 mm 2 mps 751 mmHg 65%
10:00 +23°C° 0 mm 2 mps 751 mmHg 59%
11:00 +24°C° 0 mm 2 mps 751 mmHg 54%
12:00 +24°C° 0.1 mm 2 mps 751 mmHg 55%
13:00 +24°C° 0.1 mm 2 mps 751 mmHg 57%
14:00 +24°C° 0.1 mm 2 mps 750 mmHg 59%
15:00 +23°C° 0.1 mm 2 mps 750 mmHg 62%
16:00 +23°C° 0.1 mm 2 mps 750 mmHg 66%
17:00 +21°C° 0.1 mm 2 mps 750 mmHg 70%
18:00 +20°C° 0 mm 2 mps 750 mmHg 74%
19:00 +19°C° 0 mm 2 mps 750 mmHg 78%
20:00 +18°C° 0 mm 1 mps 750 mmHg 82%
21:00 +18°C° 0 mm 1 mps 750 mmHg 84%
22:00 +16°C° 0 mm 1 mps 750 mmHg 85%
23:00 +15°C° 0 mm 1 mps 750 mmHg 87%

8 August, Saturday

Time Temperature Precipitation Wind Pressure Humidity
00:00 +15°C° 0 mm 1 mps 750 mmHg 88%
01:00 +14°C° 0 mm 1 mps 750 mmHg 89%
02:00 +14°C° 0 mm 1 mps 750 mmHg 91%
03:00 +14°C° 0 mm 1 mps 750 mmHg 91%
04:00 +14°C° 0 mm 1 mps 750 mmHg 90%
05:00 +13°C° 0 mm 1 mps 750 mmHg 90%
06:00 +15°C° 0 mm 1 mps 750 mmHg 83%
07:00 +18°C° 0 mm 2 mps 750 mmHg 75%
08:00 +20°C° 0 mm 2 mps 750 mmHg 68%
09:00 +21°C° 0 mm 2 mps 750 mmHg 62%
10:00 +23°C° 0 mm 2 mps 750 mmHg 57%
11:00 +25°C° 0 mm 2 mps 750 mmHg 51%
12:00 +25°C° 0 mm 2 mps 750 mmHg 50%
13:00 +25°C° 0 mm 2 mps 749 mmHg 49%
14:00 +25°C° 0 mm 2 mps 749 mmHg 48%
15:00 +25°C° 0 mm 2 mps 749 mmHg 53%
16:00 +24°C° 0 mm 2 mps 748 mmHg 58%
17:00 +24°C° 0 mm 1 mps 748 mmHg 63%
18:00 +21°C° 0 mm 2 mps 748 mmHg 69%
19:00 +19°C° 0 mm 2 mps 748 mmHg 75%
20:00 +17°C° 0 mm 2 mps 748 mmHg 81%
21:00 +16°C° 0 mm 2 mps 748 mmHg 84%
22:00 +15°C° 0 mm 1 mps 748 mmHg 86%
23:00 +15°C° 0 mm 1 mps 748 mmHg 88%
Show more